Regional Weather Roundup
Issued by NWS

Home | Current Version | Previous Version | Text Only | Print | Product List | Glossary Off
Versions: 1 2 3 4 5 6 7 8 9 10 11 12 13 14 15 16 17 18 19 20 21 22 23 24 25 26 27

000
ASUS45 KSLC 200710
RWRUT

UTAH REGIONAL WEATHER ROUNDUP
NATIONAL WEATHER SERVICE SALT LAKE CITY UT
1200 AM MST MON FEB 20 2017

UTZ001>011-023>025-200800-

NORTHERN UTAH

CITY           SKY/WX    TMP DP  RH WIND       PRES   REMARKS
BRIGHAM CITY     N/A     37  32  83 NW6       29.91R WCI  32
HILL AFB       CLEAR     39  32  74 E15       29.91R WCI  31
LOGAN          CLEAR     34  30  85 NW6       29.91R WCI  29
OGDEN          CLEAR     38  33  82 SE9       29.90R WCI  31
SALT LAKE CITY PTCLDY    41  35  79 SE9       29.91R
TOOELE VALLEY  CLEAR     41  34  75 S10       29.91S
WENDOVER       PTCLDY    36  28  75 W3        29.89S
HEBER CITY     CLEAR     30  28  93 CALM      29.96R
WEST JORDAN    CLEAR     43  43  99 S13       29.93R

$$

UTZ011>015-024>027-200800-

CENTRAL/NORTHEAST UTAH

CITY           SKY/WX    TMP DP  RH WIND       PRES   REMARKS
PROVO AIRPORT  PTCLDY    40  36  86 SE6       29.97R
DELTA          PTCLDY    41  34  75 S20G29    29.97R
PRICE          PTCLDY    34  33  96 SE3       29.98S
RICHFIELD      CLEAR     41  30  65 S7G14     30.01R
ROOSEVELT      FOG       36  34  93 CALM      30.00R VSB 1/2
VERNAL         PTCLDY    32  31  96 CALM      29.98R

$$

UTZ013>016-019>022-027-200800-

SOUTHERN UTAH

CITY           SKY/WX    TMP DP  RH WIND       PRES   REMARKS
BRYCE CANYON   CLEAR     25  21  85 CALM      30.05R
CEDAR CITY     CLEAR     37  34  89 SW12      30.04R WCI  29
MILFORD        PTCLDY    40  34  79 S16       30.01R WCI  31
ST GEORGE      MOSUNNY   45  42  89 S3        30.06R
HANKSVILLE     CLEAR     32  32 100 CALM      30.01R
KANAB          CLEAR     37  36  93 SW3       30.12R
BLANDING       CLEAR     33  32  96 N3        30.08S

$$

REGIONAL REPORTS     COLORADO/ARIZONA

CITY           SKY/WX    TMP DP  RH WIND       PRES   REMARKS
CRAIG, CO      MOCLDY    29  25  85 CALM      30.00R
GRAND JUNCTION CLOUDY    40  40 100 CALM      30.00R
RIFLE, CO      CLOUDY    39  36  89 SW8       29.99R WCI  33
MONTROSE, CO   CLOUDY    36  35  96 S7        30.03R WCI  30
CORTEZ, CO     CLOUDY    36  35  96 NE6       30.03R WCI  31
COLORADO CITY  CLOUDY    41  37  87 CALM      30.11R
PAGE, AZ       CLEAR     42  33  70 E3        30.04R
GRAND CANYON   CLOUDY    35  35 100 SW7       30.11R FOG     WCI  29
KINGMAN, AZ    MOCLDY    45  40  82 SE5       30.11R
FLAGSTAFF, AZ  CLOUDY    34  29  82 W8        30.12R WCI  27

$$

REGIONAL REPORTS    NEVADA/IDAHO/WYOMING

CITY           SKY/WX    TMP DP  RH WIND       PRES   REMARKS
LAS VEGAS, NV  MOCLDY    53  44  71 W6        30.01R
ELY, NY        CLOUDY    39  33  79 SE16      29.98R WCI  30
ELKO, NV       LGT RAIN  40  36  86 SW6       29.89R
POCATELLO, ID  CLEAR     31  28  89 E5        29.89S WCI  26
FORT BRIDGER,    N/A     33  26  77 SW16      29.96S WCI  22
EVANSTON, WY   CLEAR     28  22  78 S6        29.95R WCI  22
ROCK SPRINGS,  CLOUDY    28  25  88 SW12      29.94F WCI  18

$$




USA.gov is the U.S. government's official web portal to all federal, state and local government web resources and services.